This demonstration page uses our WeatherBlox Daily Observations layout. Learn more.

36.17497, -115.13722

Hourly Observations for November 19, 2019

Temp ( °F °C ) Dew Point ( °F °C ) Humidity (%) Winds ( mph kmh ) Pressure ( in mb ) Visibility ( mi km ) Precip ( " mm )
12:53 am 00:53 Clear 54 12.2 26 -3.3 34 34 NW 5 7 29.87 1012 10 16.0934 0 0
1:53 am 01:53 Clear 52 11.1 27 -2.8 38 38 NW 5 7 29.86 1011 10 16.0934 0 0
2:53 am 02:53 Clear 50 10 29 -1.7 44 44 WNW 3 6 29.85 1011 10 16.0934 0 0
3:53 am 03:53 Clear 51 10.6 30 -1.1 44 44 WNW 5 7 29.84 1010 10 16.0934 0 0
4:53 am 04:53 Clear 50 10 30 -1.1 46 46 WNW 5 7 29.83 1010 10 16.0934 0 0
5:53 am 05:53 Clear 50 10 28 -2.2 43 43 NNE 3 6 29.83 1010 10 16.0934 0 0
6:53 am 06:53 Sunny 52 11.1 29 -1.7 41 41 WNW 3 6 29.84 1011 10 16.0934 0 0
7:53 am 07:53 Sunny 59 15 27 -2.8 29 29 Calm 29.83 1010 10 16.0934 0 0
8:53 am 08:53 Sunny 60 15.6 28 -2.2 30 30 N 3 6 29.82 1010 10 16.0934 0 0
9:53 am 09:53 Sunny 63 17.2 26 -3.3 25 25 ENE 9 15 29.8 1009 10 16.0934 0 0
10:53 am 10:53 Sunny 67 19.4 24 -4.4 20 20 E 7 11 29.75 1007 10 16.0934 0 0
11:53 am 11:53 Sunny 70 21.1 24 -4.4 18 18 E 6 9 29.69 1006 10 16.0934 0 0
12:53 pm 12:53 Sunny 73 22.8 26 -3.3 17 17 ESE 8 13 29.65 1004 10 16.0934 0 0
1:53 pm 13:53 Sunny 74 23.3 26 -3.3 17 17 ENE 6 9 29.62 1003 10 16.0934 0 0
2:53 pm 14:53 Sunny 76 24.4 27 -2.8 16 16 ENE 7 11 29.6 1002 10 16.0934 0 0
3:53 pm 15:53 Mostly Cloudy 75 23.9 29 -1.7 18 18 N 7 11 29.58 1002 10 16.0934 0 0
4:53 pm 16:53 Cloudy 73 22.8 34 1.1 24 24 ESE 3 6 29.55 1001 10 16.0934 0 0
5:53 pm 17:53 Mostly Cloudy 72 22.2 38 3.3 29 29 S 5 7 29.54 1001 10 16.0934 0.001 0.001
6:53 pm 18:53 Mostly Cloudy 70 21.1 37 2.8 30 30 S 5 7 29.54 1000 10 16.0934 0 0
7:53 pm 19:53 Cloudy 70 21.1 46 7.8 42 42 SSE 9 15 29.55 1001 10 16.0934 0 0
8:53 pm 20:53 Cloudy with Light Rain 65 18.3 46 7.8 51 51 SSE 15 24 29.54 1000 10 16.0934 0.001 0.001
9:53 pm 21:53 Cloudy 64 17.8 47 8.3 54 54 SW 8 13 29.55 1001 10 16.0934 0.001 0.001
10:37 pm 22:37 Cloudy with Light Rain 59 15 54 12.2 83 83 ESE 15 24 29.48 998 10 16.0934 0.01 0.254
10:53 pm 22:53 Cloudy with Light Rain 58 14.4 54 12.2 87 87 ESE 15 24 29.54 1000 10 16.0934 0.02 0.508
11:39 pm 23:39 Cloudy with Light Rain 57 13.9 55 12.8 93 93 ESE 7 11 29.49 999 10 16.0934 0.001 0.001
11:53 pm 23:53 Cloudy with Light Rain 57 13.9 55 12.8 93 93 SE 6 9 29.53 1000 10 16.0934 0.001 0.001

Powered by AerisWeather